sat.trackr.live / text

‹ back to catalog

STARLINK-3777

NORAD 52294 · 2022-041AK

PAYLOAD ACTIVE UNKNOWN

§ Identity

Operator
Country
US
Launch date
2022-04-21
Launch site
AFETR
Launch vehicle
Mass (kg)
RCS (m²)

Purposes: comms

External: N2YO · Heavens-Above · Gunter

§ Orbital elements

Epoch: 2026-09-19T08:52:20.404704Z

Period
93.90 min
Inclination
53.1603°
Eccentricity
0.0001236
Mean motion
15.33535480 rev/d
Perigee alt
464.4 km
Apogee alt
466.1 km
Semi-major
6,843.4 km
B*
-4.0872e-5
RAAN
297.1262°
Arg perigee
85.7124°
Mean anomaly
274.4020°
Rev number
24,391

§ Raw data

STARLINK-37771 52294U 22041AK  26262.36968061 -.00001716  00000+0 -40872-4 0  99992 52294  53.1603 297.1262 0001236  85.7124 274.4020 15.33535480243915

JSON: /api/v1/satellites/52294 · /tle

For live sub-satellite position, see the globe view (requires WebGL).

§ Visibility from observer

Set your observer location to see the next 7 days of passes ≥ 10°. The values pass through the URL so the page stays shareable.

No JS? Fill the form by hand. The geolocation button needs JavaScript.